Home   Weather   Jessheim   Past weeks

Flag for Norway Past Weather in Jessheim, Norway — Yesterday and Last 2 Weeks

34 °F

Passing clouds.

Feels Like: 25 °F
Forecast: 36 / 40 °F
Wind: 13 mph from Northeast

Location: Oslo Gardermoen Airport

Current Time: Oct 22, 2016 at 11:33:52 PM

Latest Report: Oct 22, 2016 at 10:50 PM

Visibility: N/A

Pressure: 30.36 "Hg

Humidity: 93%

Dew Point: 32 °F

Location of JessheimLocation

Past Weather in Jessheim — Graph


Jessheim Temperature Yesterday

Maximum temperature yesterday: 39 °F (at 12:20 AM)
Minimum temperature yesterday: 37 °F (at 1:20 AM)
Average temperature yesterday: 38 °F

High & Low Weather Summary for the Past Weeks

High48 °F (Oct 8, 1:20 PM)100% (Oct 17, 9:20 AM)30.60 "Hg (Oct 17, 9:20 AM)
Low30 °F (Oct 14, 3:50 AM)50% (Oct 8, 12:50 PM)30.12 "Hg (Oct 18, 11:20 AM)
Average39 °F79%30.42 "Hg
* Reported Oct 7 10:20 PM — Oct 22 10:20 PM, Jessheim, Weather by CustomWeather, © 2016

Note: Actual official high and low records may vary slightly from our data, if they occured in-between our weather recording intervals... More about our weather records


Jessheim Weather History for the Previous 24 Hours

Scroll right to see more
Time TempWeatherWind HumidityBarometerVisibility
10:20 PM
Sat, Oct 22
34 °FPassing clouds.12 mph93%30.36 "HgN/A
9:50 PM34 °FPassing clouds.12 mph93%30.36 "HgN/A
9:20 PM34 °FPassing clouds.13 mph93%30.36 "HgN/A
8:50 PM34 °FPassing clouds.10 mph93%30.36 "HgN/A
8:20 PM34 °FPartly cloudy.9 mph93%30.36 "HgN/A
7:50 PM34 °FDrizzle. Mostly cloudy.13 mph93%30.36 "HgN/A
7:20 PM34 °FDrizzle. Low clouds.12 mph93%30.36 "HgN/A
6:50 PM34 °FDrizzle. Mostly cloudy.10 mph93%30.36 "HgN/A
6:20 PM34 °FLight rain. Mostly cloudy.10 mph93%30.36 "Hg4 mi
5:50 PM34 °FLight rain. Fog.9 mph93%30.36 "Hg3 mi
5:20 PM36 °FLight rain. Mostly cloudy.12 mph81%30.36 "HgN/A
4:50 PM36 °FLight rain. Mostly cloudy.10 mph81%30.36 "HgN/A
4:20 PM36 °FPartly sunny.12 mph81%30.36 "HgN/A
3:50 PM36 °FOvercast.12 mph75%30.36 "HgN/A
3:20 PM36 °FOvercast.10 mph75%30.36 "HgN/A
2:50 PM36 °FOvercast.10 mph75%30.36 "HgN/A
2:20 PM36 °FOvercast.13 mph75%30.36 "HgN/A
1:50 PM36 °FPartly sunny.10 mph75%30.36 "HgN/A
1:20 PM36 °FSprinkles. Overcast.12 mph75%30.36 "HgN/A
12:50 PM36 °FOvercast.12 mph75%30.36 "HgN/A
12:20 PM36 °FOvercast.13 mph75%30.36 "HgN/A
11:50 AM36 °FOvercast.13 mph75%30.36 "HgN/A
11:20 AM36 °FOvercast.13 mph75%30.36 "HgN/A
10:50 AM37 °FOvercast.13 mph75%30.36 "HgN/A
10:20 AM36 °FOvercast.12 mph75%30.36 "HgN/A
9:50 AM36 °FMore clouds than sun.13 mph81%30.36 "HgN/A
9:20 AM36 °FOvercast.13 mph81%30.36 "HgN/A
8:50 AM36 °FOvercast.10 mph87%30.36 "HgN/A
8:20 AM36 °FLight rain. Overcast.10 mph87%30.36 "HgN/A
7:50 AM37 °FDrizzle. Overcast.12 mph81%30.36 "HgN/A
7:20 AM37 °FMostly cloudy.9 mph75%30.36 "HgN/A
6:50 AM37 °FOvercast.9 mph75%30.36 "HgN/A
6:20 AM37 °FOvercast.7 mph75%30.36 "HgN/A
5:50 AM37 °FOvercast.8 mph75%30.36 "HgN/A
5:20 AM37 °FPassing clouds.12 mph81%30.36 "HgN/A
4:50 AM37 °FPassing clouds.13 mph81%30.36 "HgN/A
4:20 AM37 °FPassing clouds.10 mph81%30.36 "HgN/A
3:50 AM37 °FPartly cloudy.9 mph81%30.36 "HgN/A
3:20 AM37 °FPartly cloudy.9 mph81%30.36 "HgN/A
2:50 AM37 °FPassing clouds.9 mph81%30.36 "HgN/A
1:50 AM37 °FPassing clouds.8 mph81%30.36 "HgN/A
1:20 AM37 °FPassing clouds.9 mph81%30.36 "HgN/A
12:50 AM37 °FPassing clouds.9 mph81%30.36 "HgN/A
12:20 AM37 °FMostly cloudy.10 mph81%30.36 "HgN/A
11:50 PM
Fri, Oct 21
39 °FPassing clouds.10 mph75%30.36 "HgN/A
11:20 PM39 °FOvercast.9 mph75%30.36 "HgN/A
Weather by CustomWeather, © 2016

See weather overviewHow to use our weather pages